Погода в Кургане

Погода в Кургане : погода сейчас, прогноз погоды и архив. Всё, что Вы хотите узнать о погоде в Кургане!

Хотите узнать прогноз погоды в Кургане? Тогда Вам сюда: Погода в Кургане

Поиск расширенной информации на нашем сайте:

Другие новости

Новости СМИ2

Главная страница сайта

Новости сайта

03.07.2017

Напоминаем, что на нашем специализированном сайте Метеоцентр.Азия вы можете получить высокодетализированные автоматические прогнозы погоды по пунктам России, СНГ и мира в авиационном формате (включающие направление и скорость ветра, видимость, явления погоды, количество и форму облачности, нижнюю и верхнюю границу облачности).


Погода в Кургане - сегодня

Время (UTC), дата Ветер
(°,м/с) 
Видим.   Явления Облачность Т
(°С)
Тd
(°С)
f(%) Тe
(°С)
Pmin
(гПа)
dP
(гПа)
Po
(мм)
O2
(г/м3)
Тmin Tmax R s Состояние
почвы
00 17.09.17 190 (Ю) 10 км    ясно 
+12.7 +9.4 80 +13  1013  0.5  753  288           
03 17.09.17 190 (Ю) 20000 м    10/0 средняя, верхняя 
[Ac trans|Ci fib]
+12.5 +9.9 84 +15  1014.1  1.2  754  289  +11.5        сухая 
06 17.09.17 280 (З) 5{10}  20000 м    10/0 верхняя 
[Ci fib]
+17.8 +6.6 48 +18  1014.3  0.4  754  284           
09 17.09.17 300 (СЗ) 4{10}  20000 м    3/3 600 м 
[Sc]
+19.8 +4.5 36 +20  1013.9  -0.4  754  283           
12 17.09.17 270 (З) 20000 м    5/3 600 м верхняя 
[Sc|Ci fib]
+19.3 +5.2 40 +20  1013.4  -0.4  754  283           
15 17.09.17 240 (ЮЗ) 10 км    ясно 
+15.2 +5.6 53 +17  1014  0.5  754  287    +20.1       
18 17.09.17 230 (ЮЗ) 10 км    ясно 
+12.6 +6 64 +13  1014.1  754  289           
21 17.09.17 230 (ЮЗ) 10 км    4/0 верхняя 
[Ci fib]
+10.9 +6.3 73 +12  1013.7  -0.4  754  291           
00 18.09.17 220 (ЮЗ) 10 км    3/0 средняя 
[Ac trans]
+9.3 +6.4 82 +9  1013.6  -0.2  753  293           
03 18.09.17 240 (ЮЗ) 20000 м    10/0 средняя, верхняя 
[Ac trans|Ci fib]
+11.8 +7.4 74 +12  1013.1  -0.4  753  290  +7.5        сухая 
18 18.09.17 290 (З) 10 км    ясно 
+9.1 +2 61 +9  1018.6  2.1  757  295           
21 18.09.17 280 (З) 10 км    ясно 
+6.5 +1.8 72 +6  1019.8  1.2  758  298           
00 19.09.17 240 (ЮЗ) 10 км    ясно 
+4.2 +1.5 83 +5  1021.2  1.3  759  301           
03 19.09.17 250 (З) 20000 м    10/0 средняя, верхняя 
[Ac trans|Ci fib]
+5.2 +1.4 76 +5  1022.9  1.7  760  300  +3.8        сухая 
06 19.09.17 240 (ЮЗ) 20000 м    8/0 средняя, верхняя 
[Ac trans|Ci fib]
+11 +2.2 55 +11  1023.4  0.6  761  294           
09 19.09.17 240 (ЮЗ) 20000 м    10/5 1000 м средняя, верхняя 
[Sc diur, vesp|Ac trans|Ci]
+13.2 +3.7 52 +14  1022.8  -0.5  760  292           
12 19.09.17 180 (Ю) 20000 м  {ливн. осадки}  10/8 1000 м кучево-дожд., верхняя 
[Cb cap|Ci fib]
+14 +6.2 59 +15  1021.4  -1.4  759  290           
15 19.09.17 100 (В) 10 км    10/6 1000 м средняя, верхняя 
[Sc diur, vesp|Ac trans|Ci fib]
+12 +6.9 71 +13  1020.1  -1.4  758  292    +14.4       
18 19.09.17 150 (ЮВ) 10 км    10/0 средняя 
[Ac und]
+11.9 +6.5 69 +13  1017.1  -2.9  756  291           
21 19.09.17 тихо ()   10 км    10/6 1000 м средняя 
[Sc|Ac und]
+9.9 +6.9 82 +10  1015  -2.1  755  292           
00 20.09.17 180 (Ю) 10 км    3/0 средняя 
[Ac trans]
+11 +8.4 84 +12  1014.8  0.1  754  291           
03 20.09.17 190 (Ю) 20000 м    10/4 1000 м средняя, верхняя 
[Sc|Ac trans|Ci]
+15.9 +9.4 65 +17  1013.4  -1.3  753  285  +9.9        сухая 
06 20.09.17 230 (ЮЗ) 20000 м    10/8 1000 м кучево-дожд., верхняя 
[Cb cap|Ci fib]
+22.3 +9.5 44 +23  1012.8  -0.4  753  279           
09 20.09.17 250 (З) 20000 м  {ливн. осадки}  10/3 1000 м кучево-дожд., средняя, верхняя 
[Cb cap|Ac trans|Ci fib]
+24.4 +7.6 34 +24  1012.2  -0.5  753  277           
12 20.09.17 270 (З) 3{12}  20000 м  {ливн. осадки}  10/3 1000 м кучево-дожд., средняя, верхняя 
[Cb cap|Ac trans|Ci fib]
+23.4 +6.1 33 +23  1012.8  0.5  753  279           
Время (UTC), дата Ветер
(°,м/с) 
Видим.   Явления Облачность Т
(°С)
Тd
(°С)
f(%) Тe
(°С)
Pmin
(гПа)
dP
(гПа)
Po
(мм)
O2
(г/м3)
Тmin Tmax R s Состояние
почвы

Для получения пояснительной информации подведите курсор к названию столбца.

ПОГОДА в Кургане - архив

Всё, что Вы хотите узнать о погоде в Кургане - удобно и подробно!

Выберите нужную дату (начиная с 1 января 2015* года) и нажмите кнопку "Найти".
Будут отображены архивные сводки погоды по пункту Курган, начиная с указанной даты.


Отображать данные в формате CSV (для использования в таблицах Excel)


Внимание! Наш архив погоды предназначен исключительно для личного некоммерческого использования в познавательных целях. Если Вам необходимы официальные справки о состоянии погоды (для производственных, юридических, коммерческих и т.п. целей), обращайтесь в органы Росгидромета.

*Примечание: данная дата относится к архиву по метеостанциям СССР (Россия, СНГ, Балтия).
Архив по метеостанциям Зарубежной Европы и Азии (кроме Китая) хранится 10 дней, по другим регионам земного шара (Китай, Африка, Америка, Австралия, Океания) - 1 день.

Курган - район местоположения метеостанции


Название, широта, долгота, высота метеостанции:
Курган 55.5°ш. 65.4°д. 74 м над ур. моря [Российская Федерация]

Дополнительная информация

В oтличие oт бoльшинства пoгoдных сайтoв мы публикуем пoдрoбную метеoинфoрмацию в детальнoм прoфессиoнальнoм фoрмате.

Характеристики температуры и влажнoсти вoздуха измеряются на высoте 2 м в тени вдали oт зданий и деревьев.
Скoрoсть ветра измеряется на высoте 10 м (на урoвне рoста челoвека скoрoсть ветра ниже в 1.5-2 раза). Если метеoстанция нахoдится в гoрoде или в лесу, тo скoрoсть ветра занижена на 2-4 м/с пo сравнению с oткрытым местoм. Скoрoсть ветра над акватoриями крупных рек и oзёр, а также на вершинах хoлмoв на 2-5 м/с выше, чем в oбычных услoвиях.
Атмoсфернoе давление в разных тoчках местнoсти мoжет значительнo oтличаться oт давления на метеoстанции, в зависимoсти oт услoвий рельефа (при пoдъёме на 10 м давление пoнижается примернo на 1 мм рт.ст.).